Michigan City, IN

11:47 PM CDT on April 23, 2017 (GMT -0500)
Michigan City Municipal

Weather History for KMGC - February, 2012

Change the Weather History Date:

Wednesday, February 22, 2012

  Actual Average (KSBN) Record (KSBN)
Temperature  
Mean Temperature 34 °F -  
Max Temperature 37 °F 40 °F 66 °F (1922)
Min Temperature 32 °F 26 °F -11 °F (1963)
Degree Days  
Heating Degree Days 30    
Moisture  
Dew Point 32 °F    
Average Humidity 94    
Maximum Humidity 100    
Minimum Humidity 81    
Precipitation  
Precipitation 0.00 in - - ()
Sea Level Pressure  
Sea Level Pressure 29.54 in    
Wind  
Wind Speed 4 mph ()    
Max Wind Speed 8 mph    
Max Gust Speed -    
Visibility 8.1 miles    
Events Rain , Snow    
Averages and records for this station are not official NWS values.
T = Trace of Precipitation, MM = Missing Value Source: Averaged Metar Reports

Daily Weather History Graph

Daily Weather History Graph

Search for Another Location

Airport or City:

Trip Planner

Search our weather history database for the weather conditions in past years. The results will help you decide how hot, cold, wet, or windy it might be!

Date:

Astronomy

Feb. 22, 2012 Rise Set
Actual Time 6:33 AM CST 5:28 PM CST
Civil Twilight 6:05 AM CST 5:56 PM CST
Nautical Twilight 5:33 AM CST 6:29 PM CST
Astronomical Twilight 5:00 AM CST 7:01 PM CST
Moon 6:30 AM CST (2/22) 6:36 PM CST (2/22)
Length of Visible Light 11h 51m
Length of Day
10h 55m
New Moon, 1% of the Moon is Illuminated
Feb 22
New Moon
Feb 29
First Quarter
Mar 8
Full
Mar 14
Last Quarter
Mar 22
New

Hourly Weather History & Observations

Time (CST) Temp. Windchill Dew Point Humidity Pressure Visibility Wind Dir Wind Speed Gust Speed Precip Events Conditions
12:15 AM 35.6 °F 29.2 °F 30.2 °F 81% 29.71 in 10.0 mi SW 8.1 mph - N/A   Overcast
12:35 AM 33.8 °F 27.7 °F 30.2 °F 87% 29.70 in 10.0 mi SW 6.9 mph - N/A   Mostly Cloudy
12:55 AM 33.8 °F 27.7 °F 30.2 °F 87% 29.70 in 10.0 mi SW 6.9 mph - N/A   Scattered Clouds
1:15 AM 33.8 °F 28.6 °F 30.2 °F 87% 29.69 in 10.0 mi SW 5.8 mph - N/A   Mostly Cloudy
1:35 AM 33.8 °F 29.6 °F 30.2 °F 87% 29.69 in 10.0 mi SW 4.6 mph - N/A   Mostly Cloudy
1:55 AM 33.8 °F 29.6 °F 30.2 °F 87% 29.69 in 10.0 mi West 4.6 mph - N/A   Overcast
2:15 AM 33.8 °F 29.6 °F 30.2 °F 87% 29.69 in 10.0 mi SW 4.6 mph - N/A   Overcast
2:35 AM 33.8 °F 29.6 °F 30.2 °F 87% 29.68 in 10.0 mi SSW 4.6 mph - N/A   Overcast
2:55 AM 32.0 °F 28.7 °F 30.2 °F 93% 29.68 in 10.0 mi WSW 3.5 mph - N/A   Overcast
3:15 AM 33.8 °F 29.6 °F 30.2 °F 87% 29.67 in 10.0 mi South 4.6 mph - N/A   Overcast
3:35 AM 33.8 °F 29.6 °F 30.2 °F 87% 29.66 in 10.0 mi South 4.6 mph - N/A   Overcast
3:55 AM 33.8 °F 28.6 °F 30.2 °F 87% 29.64 in 10.0 mi South 5.8 mph - N/A   Overcast
4:15 AM 32.0 °F 27.5 °F 30.2 °F 93% 29.64 in 10.0 mi South 4.6 mph - N/A   Overcast
4:35 AM 32.0 °F 26.4 °F 30.2 °F 93% 29.65 in 10.0 mi SSW 5.8 mph - N/A   Overcast
4:55 AM 33.8 °F 28.6 °F 30.2 °F 87% 29.65 in 10.0 mi SW 5.8 mph - N/A   Overcast
5:15 AM 33.8 °F 28.6 °F 30.2 °F 87% 29.65 in 10.0 mi SSW 5.8 mph - N/A   Overcast
5:35 AM 33.8 °F 29.6 °F 30.2 °F 87% 29.64 in 7.0 mi West 4.6 mph - N/A Snow Light Snow
5:55 AM 32.0 °F 25.6 °F 30.2 °F 93% 29.62 in 10.0 mi SSW 6.9 mph - N/A   Overcast
6:15 AM 32.0 °F 26.4 °F 32.0 °F 100% 29.64 in 10.0 mi SSW 5.8 mph - N/A   Light Drizzle
6:35 AM 32.0 °F 27.5 °F 32.0 °F 100% 29.62 in 4.0 mi South 4.6 mph - N/A Snow Light Snow
6:55 AM 32.0 °F 26.4 °F 32.0 °F 100% 29.62 in 2.5 mi South 5.8 mph - N/A Snow Light Snow
7:15 AM 32.0 °F 26.4 °F 32.0 °F 100% 29.61 in 1.5 mi SSW 5.8 mph - N/A Snow Light Snow
7:55 AM 32.0 °F - 32.0 °F 100% 29.61 in 1.0 mi Calm Calm - N/A Snow Light Snow
8:15 AM 32.0 °F - 32.0 °F 100% 29.60 in 0.5 mi Calm Calm - N/A Snow Snow
8:35 AM 32.0 °F - 32.0 °F 100% 29.60 in 0.5 mi Calm Calm - N/A Snow Light Snow
8:55 AM 32.0 °F - 32.0 °F 100% 29.58 in 1.8 mi Calm Calm - N/A Rain Light Rain
9:15 AM 32.0 °F 26.4 °F 32.0 °F 100% 29.57 in 3.0 mi SSE 5.8 mph - N/A   Overcast
9:35 AM 33.8 °F 28.6 °F 32.0 °F 93% 29.56 in 7.0 mi South 5.8 mph - N/A   Overcast
9:55 AM 33.8 °F 27.0 °F 33.8 °F 100% 29.55 in 10.0 mi South 8.1 mph - N/A   Overcast
10:15 AM 35.6 °F 30.7 °F 33.8 °F 93% 29.55 in 10.0 mi South 5.8 mph - N/A   Overcast
10:35 AM 35.6 °F 30.7 °F 33.8 °F 93% 29.54 in 10.0 mi South 5.8 mph - N/A   Overcast
10:55 AM 35.6 °F 30.7 °F 33.8 °F 93% 29.53 in 10.0 mi South 5.8 mph - N/A   Overcast
11:15 AM 35.6 °F 31.7 °F 33.8 °F 93% 29.53 in 10.0 mi South 4.6 mph - N/A   Overcast
11:35 AM 35.6 °F 29.9 °F 33.8 °F 93% 29.52 in 10.0 mi South 6.9 mph - N/A Rain Light Rain
11:55 AM 35.6 °F 30.7 °F 33.8 °F 93% 29.51 in 10.0 mi South 5.8 mph - N/A Rain Light Rain
12:15 PM 35.6 °F 31.7 °F 33.8 °F 93% 29.50 in 10.0 mi South 4.6 mph - N/A Rain Light Rain
12:35 PM 35.6 °F 30.7 °F 33.8 °F 93% 29.49 in 10.0 mi South 5.8 mph - N/A Rain Light Rain
12:55 PM 33.8 °F 28.6 °F 33.8 °F 100% 29.49 in 10.0 mi South 5.8 mph - N/A   Drizzle
1:15 PM 33.8 °F 30.8 °F 33.8 °F 100% 29.48 in 10.0 mi SSE 3.5 mph - N/A   Light Drizzle
1:35 PM 35.6 °F 32.8 °F 33.8 °F 93% 29.47 in 10.0 mi SE 3.5 mph - N/A   Overcast
1:55 PM 35.6 °F - 33.8 °F 93% 29.46 in 10.0 mi Calm Calm - N/A   Overcast
2:15 PM 35.6 °F 32.8 °F 33.8 °F 93% 29.45 in 10.0 mi SE 3.5 mph - N/A   Overcast
2:35 PM 35.6 °F 32.8 °F 33.8 °F 93% 29.45 in 10.0 mi SE 3.5 mph - N/A   Overcast
2:55 PM 35.6 °F 32.8 °F 33.8 °F 93% 29.44 in 10.0 mi ESE 3.5 mph - N/A   Overcast
3:15 PM 37.4 °F 34.9 °F 33.8 °F 87% 29.43 in 10.0 mi ESE 3.5 mph - N/A   Overcast
3:35 PM 35.6 °F - 33.8 °F 93% 29.43 in 10.0 mi Calm Calm - N/A   Overcast
3:55 PM 37.4 °F - 33.8 °F 87% 29.43 in 10.0 mi Calm Calm - N/A   Mostly Cloudy
4:15 PM 37.4 °F - 33.8 °F 87% 29.44 in 10.0 mi Calm Calm - N/A   Overcast
4:35 PM 35.6 °F 32.8 °F 33.8 °F 93% 29.44 in 10.0 mi SSE 3.5 mph - N/A   Overcast
4:55 PM 35.6 °F - 33.8 °F 93% 29.44 in 10.0 mi Calm Calm - N/A   Overcast
5:15 PM 35.6 °F - 33.8 °F 93% 29.44 in 10.0 mi Calm Calm - N/A   Overcast
5:35 PM 35.6 °F - 33.8 °F 93% 29.43 in 10.0 mi Calm Calm - N/A   Overcast
5:55 PM 35.6 °F - 33.8 °F 93% 29.44 in 10.0 mi Calm Calm - N/A   Light Drizzle
6:15 PM 33.8 °F - 33.8 °F 100% 29.44 in 10.0 mi Calm Calm - N/A   Scattered Clouds
6:35 PM 33.8 °F - 32.0 °F 93% 29.44 in 5.0 mi Calm Calm - N/A   Scattered Clouds
6:55 PM 32.0 °F - 32.0 °F 100% 29.44 in 3.0 mi Calm Calm - N/A   Mostly Cloudy
7:15 PM 32.0 °F - 32.0 °F 100% 29.44 in 3.0 mi Calm Calm - N/A   Overcast
7:35 PM 32.0 °F - 32.0 °F 100% 29.44 in 3.0 mi Calm Calm - N/A   Mostly Cloudy
7:55 PM 32.0 °F - 32.0 °F 100% 29.44 in 1.8 mi Calm Calm - N/A   Overcast
8:15 PM 32.0 °F 27.5 °F 32.0 °F 100% 29.44 in 4.0 mi South 4.6 mph - N/A   Overcast
8:35 PM 32.0 °F 28.7 °F 32.0 °F 100% 29.44 in 7.0 mi SSW 3.5 mph - N/A   Mostly Cloudy
8:55 PM 32.0 °F - 32.0 °F 100% 29.44 in 10.0 mi Calm Calm - N/A   Mostly Cloudy
9:15 PM 32.0 °F - 32.0 °F 100% 29.44 in 10.0 mi Calm Calm - N/A   Mostly Cloudy
9:35 PM 32.0 °F - 32.0 °F 100% 29.44 in 7.0 mi Calm Calm - N/A   Clear
10:15 PM 32.0 °F 28.7 °F 32.0 °F 100% 29.46 in 7.0 mi WSW 3.5 mph - N/A   Clear
10:35 PM 32.0 °F 27.5 °F 32.0 °F 100% 29.46 in 10.0 mi SW 4.6 mph - N/A   Clear
10:55 PM 32.0 °F 28.7 °F 32.0 °F 100% 29.45 in 10.0 mi WSW 3.5 mph - N/A   Clear
11:15 PM 33.8 °F 30.8 °F 32.0 °F 93% 29.46 in 7.0 mi SW 3.5 mph - N/A   Clear
11:35 PM 33.8 °F - 32.0 °F 93% 29.46 in 7.0 mi Calm Calm - N/A   Clear
11:55 PM 32.0 °F - 32.0 °F 100% 29.47 in 5.0 mi Calm Calm - N/A   Clear